| time (UTC) | temp C | wind direction | speed KPH | gust KPH | rain 1hr cm | rain 24hr cm | rain mn cm | humidity % | barometer mb |
| 20260508043319 | 10 | 18 | 0.0 | 0.0 | 0.00 | 0.00 | 0.00 | 96 | 1011.2 |
| 20260508042815 | 10 | 26 | 0.0 | 0.0 | 0.00 | 0.00 | 0.00 | 96 | 1011.1 |
| 20260508042313 | 10 | 26 | 0.0 | 0.0 | 0.00 | 0.00 | 0.00 | 96 | 1010.8 |
| 20260508041810 | 10 | 42 | 0.0 | 0.0 | 0.00 | 0.00 | 0.00 | 96 | 1011.0 |
| 20260508041306 | 10 | 117 | 0.0 | 0.0 | 0.00 | 0.00 | 0.00 | 96 | 1010.9 |
| 20260508040802 | 10 | 7 | 0.0 | 0.0 | 0.00 | 0.00 | 0.00 | 95 | 1010.9 |
| 20260508040301 | 10 | 7 | 0.0 | 0.0 | 0.00 | 0.00 | 0.00 | 95 | 1010.9 |
| 20260508035757 | 10 | 20 | 0.0 | 0.0 | 0.00 | 2.13 | 2.13 | 95 | 1010.7 |
| 20260508035255 | 10 | 11 | 0.0 | 0.0 | 0.00 | 2.13 | 2.13 | 95 | 1010.6 |
| 20260508034751 | 10 | 39 | 0.0 | 0.0 | 0.00 | 2.13 | 2.13 | 95 | 1010.6 |
| 20260508034248 | 10 | 359 | 0.0 | 0.0 | 0.00 | 2.13 | 2.13 | 95 | 1010.5 |
| 20260508033745 | 10 | 16 | 0.0 | 0.0 | 0.00 | 2.13 | 2.13 | 95 | 1010.2 |
| 20260508033244 | 10 | 15 | 0.0 | 0.0 | 0.00 | 2.13 | 2.13 | 95 | 1010.3 |
| 20260508032741 | 11 | 0 | 0.0 | 0.0 | 0.00 | 2.13 | 2.13 | 95 | 1010.5 |
| 20260508032238 | 10 | 5 | 0.0 | 0.0 | 0.00 | 2.13 | 2.13 | 95 | 1010.3 |
| 20260508031735 | 11 | 0 | 1.6 | 1.6 | 0.00 | 2.13 | 2.13 | 95 | 1010.1 |
| 20260508031231 | 11 | 11 | 0.0 | 0.0 | 0.00 | 2.13 | 2.13 | 95 | 1009.9 |
| 20260508030727 | 11 | 15 | 0.0 | 0.0 | 0.00 | 2.13 | 2.13 | 95 | 1010.4 |
| 20260508030225 | 11 | 12 | 0.0 | 0.0 | 0.00 | 2.13 | 2.13 | 95 | 1010.4 |
| 20260508025721 | 11 | 8 | 0.0 | 0.0 | 0.00 | 2.13 | 2.13 | 95 | 1010.4 |
| 20260508025219 | 11 | 354 | 1.6 | 1.6 | 0.00 | 2.13 | 2.13 | 95 | 1010.4 |
| 20260508024714 | 11 | 358 | 0.0 | 0.0 | 0.00 | 2.13 | 2.13 | 95 | 1010.4 |
| 20260508024212 | 11 | 357 | 0.0 | 0.0 | 0.00 | 2.13 | 2.13 | 95 | 1010.4 |
| 20260508023708 | 11 | 357 | 0.0 | 0.0 | 0.00 | 2.13 | 2.13 | 95 | 1010.3 |
| 20260508023206 | 11 | 5 | 0.0 | 0.0 | 0.00 | 2.13 | 2.13 | 95 | 1010.5 |
| 20260508022701 | 11 | 12 | 0.0 | 0.0 | 0.00 | 2.13 | 2.13 | 95 | 1010.1 |
| 20260508022158 | 11 | 346 | 0.0 | 0.0 | 0.00 | 2.13 | 2.13 | 95 | 1010.6 |
| 20260508021654 | 11 | 320 | 1.6 | 1.6 | 0.00 | 2.13 | 2.13 | 95 | 1010.2 |
| 20260508021150 | 11 | 359 | 1.6 | 1.6 | 0.00 | 2.13 | 2.13 | 95 | 1010.2 |
| 20260508020648 | 11 | 302 | 0.0 | 0.0 | 0.00 | 2.13 | 2.13 | 95 | 1010.2 |
| 20260508020145 | 11 | 293 | 0.0 | 0.0 | 0.00 | 2.13 | 2.13 | 95 | 1010.0 |
| 20260508015643 | 11 | 17 | 0.0 | 0.0 | 0.00 | 2.13 | 2.13 | 95 | 1009.9 |
| 20260508015139 | 11 | 258 | 0.0 | 1.6 | 0.00 | 2.13 | 2.13 | 95 | 1010.2 |
| 20260508014636 | 11 | 352 | 0.0 | 0.0 | 0.00 | 2.13 | 2.13 | 95 | 1010.1 |
| 20260508014132 | 11 | 359 | 1.6 | 1.6 | 0.00 | 2.13 | 2.13 | 95 | 1009.9 |
| 20260508013628 | 11 | 349 | 0.0 | 1.6 | 0.00 | 2.13 | 2.13 | 95 | 1010.1 |
| 20260508013125 | 11 | 340 | 1.6 | 1.6 | 0.00 | 2.13 | 2.13 | 95 | 1009.8 |
| 20260508012623 | 11 | 0 | 3.2 | 3.2 | 0.00 | 2.13 | 2.13 | 95 | 1009.8 |
| 20260508012120 | 11 | 359 | 1.6 | 3.2 | 0.00 | 2.13 | 2.13 | 94 | 1009.5 |
| 20260508011618 | 10 | 13 | 0.0 | 0.0 | 0.18 | 2.13 | 2.13 | 94 | 1009.7 |
| 20260508011115 | 11 | 358 | 4.8 | 4.8 | 0.00 | 2.11 | 2.11 | 94 | 1009.5 |
| 20260508010612 | 11 | 354 | 1.6 | 1.6 | 0.00 | 2.11 | 2.11 | 94 | 1009.5 |
| 20260508010110 | 11 | 359 | 0.0 | 1.6 | 0.00 | 2.11 | 2.11 | 94 | 1009.3 |
| 20260508005606 | 11 | 356 | 0.0 | 0.0 | 0.00 | 2.11 | 2.11 | 94 | 1009.1 |
| 20260508005102 | 11 | 356 | 0.0 | 0.0 | 0.00 | 2.11 | 2.11 | 94 | 1009.3 |
| 20260508004559 | 11 | 349 | 0.0 | 1.6 | 0.00 | 2.11 | 2.11 | 94 | 1009.1 |
| 20260508004055 | 11 | 352 | 1.6 | 1.6 | 0.13 | 2.11 | 2.11 | 94 | 1009.0 |
| 20260508003552 | 11 | 44 | 0.0 | 0.0 | 0.13 | 2.11 | 2.11 | 94 | 1009.2 |
| 20260508003050 | 11 | 10 | 0.0 | 0.0 | 0.00 | 2.08 | 2.08 | 94 | 1009.0 |
| 20260508002546 | 11 | 18 | 0.0 | 0.0 | 0.00 | 2.08 | 2.08 | 94 | 1009.0 |
| 20260508002043 | 11 | 32 | 0.0 | 0.0 | 0.00 | 2.08 | 2.08 | 94 | 1008.8 |
| 20260508001538 | 11 | 35 | 0.0 | 0.0 | 0.00 | 2.08 | 2.08 | 94 | 1009.0 |
| 20260508001035 | 11 | 122 | 1.6 | 1.6 | 0.00 | 2.08 | 2.08 | 94 | 1009.1 |
| 20260508000531 | 11 | 5 | 0.0 | 0.0 | 0.00 | 2.08 | 2.08 | 94 | 1009.4 |
| 20260508000029 | 11 | 0 | 1.6 | 1.6 | 0.00 | 2.08 | 2.08 | 94 | 1009.4 |
| 20260507235525 | 11 | 15 | 0.0 | 0.0 | 0.00 | 2.08 | 2.08 | 95 | 1008.9 |
| 20260507235023 | 11 | 11 | 0.0 | 0.0 | 0.00 | 2.08 | 2.08 | 95 | 1009.0 |
| 20260507234519 | 10 | 25 | 0.0 | 0.0 | 0.00 | 2.08 | 2.08 | 95 | 1008.8 |
| 20260507234015 | 11 | 13 | 1.6 | 1.6 | 0.00 | 2.08 | 2.08 | 95 | 1009.4 |
| 20260507233512 | 10 | 9 | 0.0 | 1.6 | 0.00 | 2.08 | 2.08 | 95 | 1009.4 |
| 20260507233011 | 10 | 15 | 0.0 | 0.0 | 0.00 | 2.08 | 2.08 | 95 | 1009.1 |
| 20260507232507 | 10 | 2 | 0.0 | 1.6 | 0.00 | 2.08 | 2.08 | 95 | 1009.1 |
| 20260507232004 | 10 | 357 | 1.6 | 1.6 | 0.00 | 2.08 | 2.08 | 96 | 1009.2 |
| 20260507231500 | 10 | 20 | 0.0 | 0.0 | 0.00 | 2.08 | 2.08 | 96 | 1009.0 |
| 20260507230958 | 11 | 22 | 3.2 | 3.2 | 0.00 | 2.08 | 2.08 | 96 | 1008.9 |
| 20260507230454 | 11 | 7 | 4.8 | 4.8 | 0.00 | 2.08 | 2.08 | 96 | 1009.0 |
| 20260507225950 | 11 | 4 | 0.0 | 1.6 | 0.00 | 2.08 | 2.08 | 96 | 1008.7 |
| 20260507225446 | 11 | 4 | 4.8 | 4.8 | 0.00 | 2.08 | 2.08 | 96 | 1008.5 |
| 20260507224942 | 11 | 359 | 1.6 | 1.6 | 0.00 | 2.08 | 2.08 | 96 | 1008.7 |
| 20260507224438 | 11 | 13 | 1.6 | 3.2 | 0.00 | 2.08 | 2.08 | 96 | 1008.5 |
| 20260507223935 | 11 | 16 | 1.6 | 1.6 | 0.00 | 2.08 | 2.08 | 96 | 1008.4 |
| 20260507223431 | 11 | 353 | 1.6 | 3.2 | 0.00 | 2.08 | 2.08 | 96 | 1008.2 |
| 20260507222928 | 11 | 2 | 3.2 | 4.8 | 0.00 | 2.08 | 2.08 | 96 | 1008.2 |
| 20260507222425 | 11 | 349 | 3.2 | 3.2 | 0.00 | 2.08 | 2.08 | 96 | 1008.3 |
| 20260507221922 | 11 | 37 | 1.6 | 1.6 | 0.00 | 2.08 | 2.08 | 96 | 1008.2 |
| 20260507221419 | 11 | 350 | 1.6 | 3.2 | 0.00 | 2.08 | 2.08 | 96 | 1007.9 |
| 20260507220914 | 11 | 19 | 0.0 | 1.6 | 0.00 | 2.08 | 2.08 | 96 | 1008.1 |
| 20260507220412 | 11 | 342 | 3.2 | 3.2 | 0.00 | 2.08 | 2.08 | 96 | 1008.2 |
| 20260507215909 | 11 | 19 | 1.6 | 1.6 | 0.00 | 2.08 | 2.08 | 96 | 1007.8 |
| 20260507215406 | 11 | 344 | 4.8 | 4.8 | 0.00 | 2.08 | 2.08 | 96 | 1007.7 |
| 20260507214903 | 11 | 7 | 0.0 | 0.0 | 0.00 | 2.08 | 2.08 | 96 | 1007.7 |
| 20260507214400 | 11 | 355 | 3.2 | 4.8 | 0.00 | 2.08 | 2.08 | 96 | 1007.5 |
| 20260507213856 | 12 | 5 | 4.8 | 4.8 | 0.00 | 2.08 | 2.08 | 96 | 1007.6 |
| 20260507213352 | 12 | 351 | 3.2 | 3.2 | 0.00 | 2.08 | 2.08 | 96 | 1007.9 |
| 20260507212849 | 12 | 5 | 3.2 | 3.2 | 0.00 | 2.08 | 2.08 | 96 | 1007.4 |
| 20260507212346 | 12 | 356 | 3.2 | 3.2 | 0.00 | 2.08 | 2.08 | 96 | 1007.5 |
| 20260507211842 | 11 | 23 | 1.6 | 3.2 | 0.00 | 2.08 | 2.08 | 96 | 1007.7 |
| 20260507211339 | 11 | 351 | 0.0 | 0.0 | 0.00 | 2.08 | 2.08 | 96 | 1007.9 |
| 20260507210836 | 12 | 4 | 1.6 | 1.6 | 0.00 | 2.08 | 2.08 | 96 | 1007.5 |
| 20260507210333 | 11 | 24 | 1.6 | 3.2 | 0.18 | 2.08 | 2.08 | 96 | 1007.7 |
| 20260507205829 | 12 | 354 | 4.8 | 4.8 | 0.18 | 2.08 | 2.08 | 96 | 1007.4 |
| 20260507205326 | 11 | 13 | 1.6 | 3.2 | 0.18 | 2.08 | 2.08 | 96 | 1007.6 |
| 20260507204822 | 11 | 355 | 3.2 | 4.8 | 0.00 | 2.06 | 2.06 | 96 | 1007.6 |
| 20260507204320 | 11 | 346 | 3.2 | 4.8 | 0.13 | 2.06 | 2.06 | 96 | 1007.3 |
| 20260507203818 | 12 | 357 | 1.6 | 1.6 | 0.13 | 2.06 | 2.06 | 96 | 1007.2 |
| 20260507203315 | 12 | 27 | 1.6 | 1.6 | 0.00 | 2.03 | 2.03 | 96 | 1007.2 |
| 20260507202811 | 12 | 9 | 1.6 | 3.2 | 0.00 | 2.03 | 2.03 | 96 | 1006.9 |
| 20260507202308 | 12 | 21 | 3.2 | 4.8 | 0.18 | 2.03 | 2.03 | 96 | 1007.0 |
| 20260507201803 | 12 | 352 | 0.0 | 1.6 | 0.30 | 2.03 | 2.03 | 96 | 1007.2 |
| 20260507201259 | 12 | 9 | 1.6 | 1.6 | 0.30 | 2.01 | 2.01 | 96 | 1007.1 |
| 20260507200755 | 12 | 10 | 3.2 | 4.8 | 0.00 | 1.96 | 1.96 | 96 | 1007.6 |
| 20260507200251 | 12 | 15 | 3.2 | 3.2 | 0.00 | 1.96 | 1.96 | 96 | 1007.3 |
| 20260507195748 | 12 | 17 | 0.0 | 1.6 | 0.00 | 1.96 | 1.96 | 96 | 1007.1 |
| 20260507195245 | 12 | 7 | 3.2 | 4.8 | 0.00 | 1.96 | 1.96 | 96 | 1007.2 |
| 20260507194743 | 12 | 345 | 4.8 | 4.8 | 0.00 | 1.96 | 1.96 | 96 | 1007.2 |
| 20260507194238 | 12 | 1 | 1.6 | 1.6 | 0.00 | 1.96 | 1.96 | 96 | 1007.0 |
| 20260507193735 | 12 | 6 | 3.2 | 3.2 | 0.00 | 1.96 | 1.96 | 96 | 1007.2 |
| 20260507193231 | 12 | 17 | 1.6 | 1.6 | 0.00 | 1.96 | 1.96 | 96 | 1007.1 |
| 20260507192728 | 12 | 11 | 4.8 | 4.8 | 0.00 | 1.96 | 1.96 | 96 | 1006.8 |
| 20260507192225 | 13 | 358 | 4.8 | 4.8 | 0.00 | 1.96 | 1.96 | 96 | 1006.9 |
| 20260507191721 | 13 | 17 | 0.0 | 1.6 | 0.13 | 1.96 | 1.96 | 96 | 1006.8 |
| 20260507191218 | 13 | 8 | 0.0 | 0.0 | 0.13 | 1.96 | 1.96 | 96 | 1007.1 |
| 20260507190714 | 13 | 34 | 3.2 | 4.8 | 0.18 | 1.93 | 1.93 | 96 | 1007.0 |
| 20260507181259 | 13 | 286 | 1.6 | 1.6 | 0.00 | 1.85 | 1.85 | 96 | 1008.2 |
| 20260507180756 | 13 | 286 | 1.6 | 1.6 | 0.00 | 1.85 | 1.85 | 96 | 1008.2 |
| 20260507180253 | 13 | 308 | 0.0 | 0.0 | 0.00 | 1.85 | 1.85 | 96 | 1008.3 |
| 20260507175748 | 13 | 8 | 1.6 | 3.2 | 0.00 | 1.85 | 1.85 | 96 | 1007.9 |
| 20260507175245 | 13 | 16 | 1.6 | 1.6 | 0.00 | 1.85 | 1.85 | 96 | 1008.1 |
| 20260507174743 | 13 | 13 | 0.0 | 0.0 | 0.00 | 1.85 | 1.85 | 96 | 1008.2 |
| 20260507174241 | 13 | 34 | 3.2 | 4.8 | 0.18 | 1.85 | 1.85 | 95 | 1008.4 |
| 20260507173738 | 13 | 355 | 6.4 | 9.7 | 0.18 | 1.85 | 1.85 | 95 | 1007.9 |
| 20260507173235 | 13 | 2 | 1.6 | 3.2 | 0.30 | 1.83 | 1.83 | 95 | 1008.4 |
| 20260507172731 | 13 | 1 | 3.2 | 3.2 | 0.43 | 1.83 | 1.83 | 95 | 1008.7 |
| 20260507172223 | 13 | 1 | 3.2 | 4.8 | 0.43 | 1.78 | 1.78 | 95 | 1008.5 |
| 20260507171722 | 13 | 317 | 4.8 | 4.8 | 0.48 | 1.75 | 1.75 | 95 | 1008.6 |
| 20260507171220 | 13 | 3 | 1.6 | 3.2 | 0.79 | 1.70 | 1.70 | 95 | 1008.8 |
| 20260507170717 | 13 | 10 | 4.8 | 4.8 | 1.19 | 1.68 | 1.68 | 95 | 1008.8 |
| 20260507170214 | 13 | 18 | 1.6 | 1.6 | 1.07 | 1.57 | 1.57 | 95 | 1009.0 |
| 20260507165709 | 13 | 17 | 4.8 | 8.0 | 0.71 | 1.45 | 1.45 | 94 | 1009.1 |
| 20260507165206 | 13 | 354 | 4.8 | 8.0 | 1.37 | 1.40 | 1.40 | 94 | 1008.8 |
| 20260507164702 | 13 | 355 | 1.6 | 3.2 | 1.68 | 1.32 | 1.32 | 94 | 1008.8 |
| 20260507164159 | 13 | 24 | 1.6 | 3.2 | 2.11 | 1.17 | 1.17 | 94 | 1009.1 |
| 20260507163656 | 13 | 14 | 4.8 | 4.8 | 2.59 | 1.04 | 1.04 | 93 | 1008.9 |
| 20260507163154 | 14 | 359 | 3.2 | 3.2 | 2.46 | 0.81 | 0.81 | 93 | 1009.0 |
| 20260507162649 | 15 | 8 | 6.4 | 8.0 | 1.50 | 0.64 | 0.64 | 93 | 1009.1 |
| 20260507162146 | 16 | 335 | 3.2 | 4.8 | 0.61 | 0.41 | 0.41 | 93 | 1008.7 |
| 20260507161642 | 17 | 7 | 4.8 | 8.0 | 0.30 | 0.36 | 0.36 | 92 | 1008.5 |
| 20260507161139 | 19 | 28 | 1.6 | 3.2 | 0.00 | 0.30 | 0.30 | 93 | 1008.8 |
| 20260507160635 | 20 | 22 | 1.6 | 1.6 | 0.00 | 0.30 | 0.30 | 94 | 1008.4 |
| 20260507160132 | 20 | 144 | 0.0 | 0.0 | 0.00 | 0.30 | 0.30 | 94 | 1008.3 |
| 20260507155628 | 20 | 63 | 0.0 | 0.0 | 0.00 | 0.30 | 0.30 | 93 | 1008.3 |
| 20260507155125 | 20 | 258 | 0.0 | 0.0 | 0.00 | 0.30 | 0.30 | 94 | 1008.3 |
| 20260507154621 | 21 | 109 | 0.0 | 0.0 | 0.00 | 0.30 | 0.30 | 93 | 1007.9 |
| 20260507154119 | 20 | 272 | 0.0 | 0.0 | 0.00 | 0.30 | 0.30 | 94 | 1007.8 |
| 20260507153615 | 20 | 160 | 0.0 | 0.0 | 0.00 | 0.30 | 0.30 | 94 | 1007.9 |
| 20260507153112 | 20 | 340 | 0.0 | 0.0 | 0.00 | 0.30 | 0.30 | 94 | 1007.9 |
| 20260507152607 | 20 | 251 | 0.0 | 0.0 | 0.00 | 0.30 | 0.30 | 94 | 1008.0 |
| 20260507152058 | 20 | 257 | 0.0 | 0.0 | 0.00 | 0.30 | 0.30 | 94 | 1008.0 |
| 20260507151554 | 20 | 11 | 0.0 | 0.0 | 0.00 | 0.30 | 0.30 | 94 | 1008.1 |
| 20260507151051 | 20 | 249 | 0.0 | 0.0 | 0.00 | 0.30 | 0.30 | 94 | 1008.0 |
| 20260507150549 | 20 | 354 | 0.0 | 0.0 | 0.00 | 0.30 | 0.30 | 94 | 1008.0 |
| 20260507150045 | 20 | 297 | 0.0 | 0.0 | 0.00 | 0.30 | 0.30 | 94 | 1007.7 |
| 20260507145540 | 20 | 21 | 0.0 | 0.0 | 0.00 | 0.30 | 0.30 | 94 | 1007.8 |
| 20260507145038 | 20 | 52 | 0.0 | 0.0 | 0.00 | 0.30 | 0.30 | 94 | 1007.7 |
| 20260507144534 | 20 | 314 | 0.0 | 0.0 | 0.00 | 0.30 | 0.30 | 94 | 1007.9 |
| 20260507144032 | 20 | 319 | 0.0 | 0.0 | 0.00 | 0.30 | 0.30 | 94 | 1007.9 |
| 20260507143529 | 20 | 216 | 0.0 | 0.0 | 0.00 | 0.30 | 0.30 | 94 | 1007.9 |
| 20260507143026 | 20 | 314 | 0.0 | 0.0 | 0.00 | 0.30 | 0.30 | 94 | 1007.8 |
| 20260507142522 | 20 | 321 | 0.0 | 0.0 | 0.00 | 0.30 | 0.30 | 94 | 1007.7 |
| 20260507142019 | 20 | 328 | 0.0 | 0.0 | 0.00 | 0.30 | 0.30 | 95 | 1008.0 |
| 20260507141515 | 20 | 288 | 0.0 | 0.0 | 0.00 | 0.30 | 0.30 | 95 | 1008.3 |
| 20260507141012 | 20 | 111 | 0.0 | 0.0 | 0.00 | 0.30 | 0.30 | 94 | 1008.1 |
| 20260507140508 | 20 | 72 | 0.0 | 0.0 | 0.00 | 0.30 | 0.30 | 95 | 1008.0 |
| 20260507140006 | 20 | 275 | 0.0 | 0.0 | 0.00 | 0.30 | 0.30 | 95 | 1008.3 |
| 20260507135503 | 20 | 310 | 0.0 | 0.0 | 0.00 | 0.30 | 0.30 | 95 | 1008.3 |
| 20260507135000 | 20 | 252 | 0.0 | 0.0 | 0.00 | 0.30 | 0.30 | 95 | 1008.5 |
| 20260507134456 | 20 | 141 | 0.0 | 1.6 | 0.00 | 0.30 | 0.30 | 95 | 1008.2 |
| 20260507133952 | 20 | 315 | 0.0 | 0.0 | 0.00 | 0.30 | 0.30 | 95 | 1008.5 |
| 20260507133448 | 20 | 309 | 0.0 | 0.0 | 0.00 | 0.30 | 0.30 | 95 | 1008.4 |
| 20260507132947 | 20 | 269 | 0.0 | 0.0 | 0.00 | 0.30 | 0.30 | 95 | 1008.5 |
| 20260507132442 | 20 | 239 | 0.0 | 0.0 | 0.00 | 0.30 | 0.30 | 95 | 1008.4 |
| 20260507131939 | 20 | 216 | 0.0 | 1.6 | 0.00 | 0.30 | 0.30 | 95 | 1008.4 |
| 20260507131437 | 20 | 198 | 1.6 | 1.6 | 0.00 | 0.30 | 0.30 | 95 | 1008.4 |
| 20260507130934 | 20 | 193 | 0.0 | 0.0 | 0.00 | 0.30 | 0.30 | 95 | 1008.5 |
| 20260507130431 | 20 | 239 | 0.0 | 0.0 | 0.00 | 0.30 | 0.30 | 95 | 1009.0 |
| 20260507125929 | 20 | 207 | 0.0 | 0.0 | 0.00 | 0.30 | 0.30 | 95 | 1008.7 |
| 20260507125427 | 20 | 188 | 1.6 | 1.6 | 0.00 | 0.30 | 0.30 | 95 | 1008.7 |
| 20260507124924 | 20 | 193 | 1.6 | 1.6 | 0.18 | 0.30 | 0.30 | 95 | 1008.7 |
| 20260507124420 | 20 | 4 | 0.0 | 0.0 | 0.18 | 0.30 | 0.30 | 95 | 1008.8 |
| 20260507123919 | 20 | 213 | 0.0 | 0.0 | 0.00 | 0.28 | 0.28 | 95 | 1008.8 |
| 20260507123418 | 20 | 192 | 0.0 | 0.0 | 0.00 | 0.28 | 0.28 | 95 | 1008.9 |
| 20260507122912 | 20 | 122 | 0.0 | 0.0 | 0.00 | 0.28 | 0.28 | 95 | 1009.1 |
| 20260507122407 | 20 | 189 | 0.0 | 1.6 | 0.00 | 0.28 | 0.28 | 95 | 1009.2 |
| 20260507121904 | 20 | 221 | 0.0 | 0.0 | 0.00 | 0.28 | 0.28 | 95 | 1009.0 |
| 20260507121359 | 19 | 213 | 0.0 | 0.0 | 0.00 | 0.28 | 0.28 | 95 | 1009.2 |
| 20260507120856 | 19 | 193 | 1.6 | 1.6 | 0.00 | 0.28 | 0.28 | 95 | 1009.2 |
| 20260507120352 | 19 | 198 | 0.0 | 0.0 | 0.00 | 0.28 | 0.28 | 95 | 1009.3 |
| 20260507115848 | 19 | 237 | 0.0 | 0.0 | 0.00 | 0.28 | 0.28 | 95 | 1009.4 |
| 20260507115344 | 19 | 294 | 0.0 | 0.0 | 0.00 | 0.28 | 0.28 | 95 | 1009.4 |
| 20260507114840 | 19 | 237 | 0.0 | 0.0 | 0.00 | 0.28 | 0.28 | 95 | 1009.5 |
| 20260507114337 | 19 | 178 | 0.0 | 1.6 | 0.00 | 0.28 | 0.28 | 95 | 1009.2 |
| 20260507113835 | 19 | 204 | 0.0 | 0.0 | 0.00 | 0.28 | 0.28 | 95 | 1009.3 |
| 20260507113332 | 19 | 231 | 1.6 | 1.6 | 0.00 | 0.28 | 0.28 | 95 | 1009.4 |
| 20260507112829 | 19 | 178 | 0.0 | 0.0 | 0.13 | 0.28 | 0.28 | 95 | 1009.3 |
| 20260507112326 | 19 | 253 | 0.0 | 0.0 | 0.13 | 0.28 | 0.28 | 95 | 1009.4 |
| 20260507111824 | 19 | 247 | 0.0 | 1.6 | 0.00 | 0.25 | 0.25 | 95 | 1009.1 |
| 20260507111320 | 19 | 329 | 0.0 | 0.0 | 0.00 | 0.25 | 0.25 | 95 | 1009.4 |
| 20260507110816 | 19 | 339 | 0.0 | 0.0 | 0.00 | 0.25 | 0.25 | 95 | 1009.4 |
| 20260507110313 | 19 | 277 | 0.0 | 0.0 | 0.00 | 0.25 | 0.25 | 95 | 1009.1 |
| 20260507105810 | 19 | 203 | 3.2 | 3.2 | 0.00 | 0.25 | 0.25 | 95 | 1008.9 |
| 20260507105307 | 19 | 315 | 0.0 | 1.6 | 0.18 | 0.25 | 0.25 | 95 | 1009.2 |
| 20260507104803 | 19 | 190 | 0.0 | 0.0 | 0.18 | 0.25 | 0.25 | 95 | 1009.4 |
| 20260507104259 | 19 | 278 | 0.0 | 1.6 | 0.13 | 0.23 | 0.23 | 95 | 1009.6 |
| 20260507103756 | 19 | 156 | 3.2 | 4.8 | 0.30 | 0.23 | 0.23 | 95 | 1009.1 |
| 20260507103252 | 19 | 158 | 0.0 | 1.6 | 0.18 | 0.20 | 0.20 | 95 | 1008.9 |
| 20260507102748 | 19 | 249 | 0.0 | 0.0 | 0.00 | 0.18 | 0.18 | 95 | 1008.9 |
| 20260507102245 | 19 | 158 | 0.0 | 0.0 | 0.00 | 0.18 | 0.18 | 95 | 1008.9 |
| 20260507101741 | 19 | 282 | 0.0 | 0.0 | 0.00 | 0.18 | 0.18 | 95 | 1009.1 |
| 20260507101231 | 19 | 269 | 0.0 | 0.0 | 0.00 | 0.18 | 0.18 | 95 | 1009.0 |
| 20260507100728 | 19 | 228 | 0.0 | 0.0 | 0.00 | 0.18 | 0.18 | 95 | 1008.9 |
| 20260507100227 | 19 | 326 | 0.0 | 0.0 | 0.00 | 0.18 | 0.18 | 94 | 1009.0 |
| 20260507095724 | 18 | 277 | 0.0 | 0.0 | 0.00 | 0.18 | 0.18 | 94 | 1008.9 |
| 20260507095220 | 18 | 301 | 0.0 | 0.0 | 0.00 | 0.18 | 0.18 | 94 | 1008.8 |
| 20260507094717 | 18 | 221 | 0.0 | 1.6 | 0.00 | 0.18 | 0.18 | 94 | 1008.9 |
| 20260507094215 | 18 | 269 | 0.0 | 0.0 | 0.00 | 0.18 | 0.18 | 94 | 1008.8 |
| 20260507093711 | 18 | 299 | 0.0 | 0.0 | 0.00 | 0.18 | 0.18 | 94 | 1008.7 |
| 20260507093210 | 18 | 212 | 0.0 | 0.0 | 0.00 | 0.18 | 0.18 | 94 | 1008.8 |
| 20260507092707 | 18 | 196 | 0.0 | 0.0 | 0.00 | 0.18 | 0.18 | 94 | 1008.8 |
| 20260507092203 | 18 | 224 | 0.0 | 0.0 | 0.00 | 0.18 | 0.18 | 94 | 1009.0 |
| 20260507091659 | 18 | 227 | 0.0 | 0.0 | 0.00 | 0.18 | 0.18 | 94 | 1009.0 |
| 20260507091156 | 18 | 268 | 0.0 | 0.0 | 0.00 | 0.18 | 0.18 | 94 | 1009.0 |
| 20260507090652 | 19 | 266 | 0.0 | 0.0 | 0.00 | 0.18 | 0.18 | 94 | 1008.8 |
| 20260507090149 | 19 | 264 | 0.0 | 0.0 | 0.00 | 0.18 | 0.18 | 94 | 1008.8 |
| 20260507085646 | 19 | 202 | 0.0 | 0.0 | 0.00 | 0.18 | 0.18 | 94 | 1008.8 |
| 20260507085142 | 19 | 186 | 0.0 | 1.6 | 0.00 | 0.18 | 0.18 | 94 | 1008.5 |
| 20260507084640 | 19 | 193 | 0.0 | 0.0 | 0.00 | 0.18 | 0.18 | 94 | 1008.8 |
| 20260507084136 | 19 | 45 | 0.0 | 0.0 | 0.00 | 0.18 | 0.18 | 93 | 1009.0 |
| 20260507083633 | 19 | 330 | 0.0 | 0.0 | 0.00 | 0.18 | 0.18 | 93 | 1009.1 |
| 20260507083130 | 19 | 299 | 0.0 | 0.0 | 0.00 | 0.18 | 0.18 | 93 | 1009.1 |
| 20260507082625 | 19 | 290 | 0.0 | 0.0 | 0.00 | 0.18 | 0.18 | 93 | 1009.4 |
| 20260507082122 | 19 | 53 | 0.0 | 0.0 | 0.00 | 0.18 | 0.18 | 93 | 1009.5 |
| 20260507081619 | 19 | 260 | 0.0 | 0.0 | 0.00 | 0.18 | 0.18 | 93 | 1009.5 |
| 20260507081115 | 19 | 8 | 0.0 | 0.0 | 0.00 | 0.18 | 0.18 | 93 | 1009.8 |
| 20260507080612 | 19 | 255 | 1.6 | 3.2 | 0.00 | 0.18 | 0.18 | 93 | 1009.8 |
| 20260507080108 | 19 | 199 | 1.6 | 1.6 | 0.13 | 0.18 | 0.18 | 93 | 1010.1 |
| 20260507075603 | 19 | 277 | 0.0 | 0.0 | 0.13 | 0.18 | 0.18 | 93 | 1009.9 |
| 20260507075100 | 19 | 288 | 1.6 | 1.6 | 0.00 | 0.15 | 0.15 | 92 | 1009.8 |
| 20260507074557 | 19 | 278 | 1.6 | 1.6 | 0.00 | 0.15 | 0.15 | 92 | 1009.9 |
| 20260507074055 | 19 | 216 | 1.6 | 1.6 | 0.18 | 0.15 | 0.15 | 92 | 1009.4 |
| 20260507073550 | 19 | 196 | 1.6 | 3.2 | 0.18 | 0.15 | 0.15 | 92 | 1009.5 |
| 20260507073047 | 19 | 305 | 1.6 | 1.6 | 0.00 | 0.13 | 0.13 | 91 | 1009.8 |
| 20260507072545 | 19 | 297 | 0.0 | 0.0 | 0.00 | 0.13 | 0.13 | 90 | 1009.6 |
| 20260507072042 | 20 | 336 | 1.6 | 1.6 | 0.00 | 0.13 | 0.13 | 89 | 1009.5 |
| 20260507071539 | 20 | 141 | 1.6 | 3.2 | 0.13 | 0.13 | 0.13 | 89 | 1009.3 |
| 20260507071036 | 20 | 247 | 1.6 | 3.2 | 0.30 | 0.13 | 0.13 | 88 | 1009.3 |
| 20260507070533 | 20 | 233 | 0.0 | 1.6 | 0.30 | 0.10 | 0.10 | 88 | 1009.4 |
| 20260507070030 | 20 | 209 | 1.6 | 3.2 | 0.43 | 0.08 | 0.08 | 87 | 1009.4 |
| 20260507065526 | 20 | 159 | 4.8 | 8.0 | 0.30 | 0.05 | 0.05 | 86 | 1009.6 |
| 20260507065023 | 20 | 175 | 4.8 | 8.0 | 0.00 | 0.00 | 0.00 | 85 | 1010.0 |
| 20260507064521 | 20 | 233 | 0.0 | 0.0 | 0.00 | 0.00 | 0.00 | 85 | 1010.1 |
| 20260507064020 | 20 | 193 | 1.6 | 1.6 | 0.00 | 0.00 | 0.00 | 85 | 1010.2 |
| 20260507063516 | 20 | 191 | 0.0 | 0.0 | 0.00 | 0.00 | 0.00 | 86 | 1010.2 |
| 20260507063014 | 20 | 206 | 0.0 | 1.6 | 0.00 | 0.00 | 0.00 | 86 | 1010.0 |
| 20260507062510 | 20 | 173 | 0.0 | 1.6 | 0.00 | 0.00 | 0.00 | 86 | 1010.1 |
| 20260507062008 | 20 | 195 | 0.0 | 0.0 | 0.00 | 0.00 | 0.00 | 87 | 1010.4 |
| 20260507061505 | 20 | 240 | 0.0 | 0.0 | 0.00 | 0.00 | 0.00 | 87 | 1010.5 |
| 20260507061004 | 20 | 271 | 0.0 | 0.0 | 0.00 | 0.00 | 0.00 | 87 | 1010.6 |
| 20260507060501 | 20 | 248 | 0.0 | 0.0 | 0.00 | 0.00 | 0.00 | 86 | 1010.7 |
| 20260507055956 | 20 | 250 | 0.0 | 0.0 | 0.00 | 0.00 | 0.00 | 86 | 1010.5 |
| 20260507055452 | 20 | 249 | 0.0 | 0.0 | 0.00 | 0.00 | 0.00 | 85 | 1010.5 |
| 20260507054949 | 20 | 259 | 0.0 | 0.0 | 0.00 | 0.00 | 0.00 | 85 | 1010.6 |
| 20260507054445 | 20 | 327 | 0.0 | 0.0 | 0.00 | 0.00 | 0.00 | 85 | 1010.5 |
| 20260507053942 | 20 | 271 | 0.0 | 0.0 | 0.00 | 0.00 | 0.00 | 84 | 1010.5 |
| 20260507053440 | 20 | 292 | 0.0 | 0.0 | 0.00 | 0.00 | 0.00 | 84 | 1010.5 |
| 20260507052938 | 20 | 288 | 0.0 | 0.0 | 0.00 | 0.00 | 0.00 | 84 | 1010.5 |
| 20260507052436 | 20 | 185 | 0.0 | 0.0 | 0.00 | 0.00 | 0.00 | 84 | 1010.5 |
| 20260507051932 | 20 | 231 | 0.0 | 0.0 | 0.00 | 0.00 | 0.00 | 83 | 1010.5 |
| 20260507051430 | 20 | 182 | 0.0 | 0.0 | 0.00 | 0.00 | 0.00 | 83 | 1010.3 |
| 20260507050927 | 20 | 172 | 1.6 | 1.6 | 0.00 | 0.00 | 0.00 | 83 | 1010.5 |
| 20260507050423 | 20 | 199 | 0.0 | 0.0 | 0.00 | 0.00 | 0.00 | 83 | 1010.7 |
| 20260507045920 | 21 | 209 | 0.0 | 0.0 | 0.00 | 0.00 | 0.00 | 83 | 1010.6 |
| 20260507045416 | 20 | 88 | 0.0 | 0.0 | 0.00 | 0.00 | 0.00 | 83 | 1010.6 |
| 20260507044914 | 20 | 226 | 0.0 | 0.0 | 0.00 | 0.00 | 0.00 | 83 | 1010.6 |
| 20260507044410 | 20 | 228 | 0.0 | 0.0 | 0.00 | 0.00 | 0.00 | 83 | 1010.5 |
| 20260507043907 | 20 | 229 | 0.0 | 0.0 | 0.00 | 0.00 | 0.00 | 83 | 1010.4 |